Погода в Шушарах

Россия / Санкт-Петербург и Ленинградская область     59°48′25″N   30°22′46″E
темп.,
°C
ветер,
м/с
пор.,
м/с
влажн.,
%
обл.,
%
осадки,
мм/ч
давл.,
гПа
погр.,
м
8 марта, пн
пн800:00−7с61190100 0.4 997854
03:00−8с51191100 0.7 1001825
06:00−10с41192100 0.1 1004724
09:00−10ссв5989100 0.3 1007647
12:00−9с5783100 0.1 1010661
15:00−8с4680100 0.1 1012736
18:00−10ссв3687100 0.0 1014320
21:00−13с379469 0.0 1016196
9 марта, вт
вт900:00−14с249636 0.1 1017202
03:00−16св129768 0.1 101981
06:00−18всв129889 0.0 102072
09:00−19всв249491 0.1 1021206
12:00−16св237874 0.0 1023396
15:00−15всв357741 0.0 1024416
18:00−17всв35870 0.0 1024230
21:00−21всв35940 0.0 1027160
10 марта, ср
ср1000:00−21в23930 0.0 102894
03:00−21в23910 0.0 102979
06:00−21вюв22860 0.0 103040
09:00−19юв11793 0.0 103180
12:00−12юв126151 0.0 1031271
15:00−9в115340 0.0 1031479
18:00−11всв12687 0.0 103021
21:00−14юв23834 0.0 103121
11 марта, чт
чт1100:00−15ююв23830 0.0 103028
03:00−15ююв34840 0.0 102982
06:00−15ююв38830 0.0 1028198
09:00−13ююв512740 0.0 1026422
12:00−8ююв611640 0.0 1024636
15:00−7ю6108018 0.0 1022607
18:00−8ююв5128796 0.0 1019495
21:00−9ю6148780 0.0 1017498
12 марта, пт
пт1200:00−9ююв6148969 0.0 1014522
03:00−9ююв6148684 0.0 1011638
06:00−9ююв71684100 0.0 1007710
09:00−8ююв81787100 0.1 1004787
12:00−6ююв81589100 0.5 1002906
15:00−5ююв71386100 0.8 1000921
18:00−4ююв71492100 0.8 999811
21:00−3ю61295100 1.5 998565